Hill City, KS

8:04 AM CST on November 22, 2017 (GMT -0600)
Hill City Municipal

Weather History for KHLC - January, 2014

Change the Weather History Date:

Wednesday, January 22, 2014

  Actual Average Record
Temperature  
Mean Temperature 28 °F 30 °F  
Max Temperature 44 °F 42 °F 81 °F (1943)
Min Temperature 11 °F 17 °F -17 °F (1966)
Degree Days  
Heating Degree Days 38    
Moisture  
Dew Point 14 °F    
Average Humidity 58    
Maximum Humidity 77    
Minimum Humidity 41    
Precipitation  
Precipitation 0.00 in 0.02 in 0.01 in (1999)
Month to date precipitation 0.03 0.25  
Year to date precipitation 0.03 0.25  
Sea Level Pressure  
Sea Level Pressure 30.30 in    
Wind  
Wind Speed 10 mph (North)    
Max Wind Speed 22 mph    
Max Gust Speed 33 mph    
Visibility 10 miles    
Events      
T = Trace of Precipitation, MM = Missing Value Source: NWS Daily Summary

Daily Weather History Graph

Daily Weather History Graph

Search for Another Location

Airport or City:

Trip Planner

Search our weather history database for the weather conditions in past years. The results will help you decide how hot, cold, wet, or windy it might be!

Date:

Astronomy

Jan. 22, 2014 Rise Set
Actual Time 7:54 AM CST 5:48 PM CST
Civil Twilight 7:25 AM CST 6:17 PM CST
Nautical Twilight 6:52 AM CST 6:49 PM CST
Astronomical Twilight 6:20 AM CST 7:21 PM CST
Moon No Moon Rise 10:58 AM CST
Length of Visible Light 10h 52m
Length of Day
9h 54m
Waning Gibbous, 65% of the Moon is Illuminated
Jan 22
Waning Gibbous
Jan 23
Last Quarter
Jan 30
New
Feb 6
First Quarter
Feb 14
Full

Hourly Weather History & Observations

Time (CST) Temp. Windchill Dew Point Humidity Pressure Visibility Wind Dir Wind Speed Gust Speed Precip Events Conditions
12:53 AM 27.0 °F 23.0 °F 17.1 °F 66% 30.18 in 10.0 mi NNW 3.5 mph - N/A   Clear
1:53 AM 26.1 °F 19.4 °F 17.1 °F 69% 30.18 in 10.0 mi NNW 5.8 mph - N/A   Clear
2:53 AM 26.1 °F 14.5 °F 19.0 °F 75% 30.17 in 10.0 mi North 13.8 mph - N/A   Clear
3:53 AM 26.1 °F 18.4 °F 18.0 °F 71% 30.17 in 10.0 mi WSW 6.9 mph - N/A   Clear
4:53 AM 24.1 °F 14.4 °F 17.1 °F 75% 30.18 in 10.0 mi West 9.2 mph - N/A   Clear
5:53 AM 21.9 °F 13.4 °F 15.1 °F 75% 30.20 in 10.0 mi West 6.9 mph - N/A   Clear
6:53 AM 21.0 °F 12.4 °F 14.0 °F 74% 30.24 in 10.0 mi WNW 6.9 mph - N/A   Clear
7:53 AM 19.0 °F 10.0 °F 12.9 °F 77% 30.27 in 10.0 mi West 6.9 mph - N/A   Clear
8:53 AM 24.1 °F 19.7 °F 17.1 °F 75% 30.27 in 10.0 mi SSW 3.5 mph - N/A   Overcast
9:53 AM 30.0 °F - 19.9 °F 66% 30.27 in 10.0 mi Calm Calm - N/A   Mostly Cloudy
10:53 AM 37.9 °F 30.9 °F 21.0 °F 51% 30.27 in 10.0 mi NNE 10.4 mph - N/A   Clear
11:53 AM 39.9 °F 33.9 °F 21.0 °F 47% 30.26 in 10.0 mi North 9.2 mph - N/A   Clear
12:53 PM 42.1 °F 34.9 °F 21.9 °F 45% 30.22 in 10.0 mi North 13.8 mph 18.4 mph N/A   Clear
1:53 PM 42.1 °F 33.3 °F 21.9 °F 45% 30.21 in 10.0 mi North 19.6 mph 24.2 mph N/A   Overcast
2:53 PM 41.0 °F 33.1 °F 19.9 °F 43% 30.21 in 10.0 mi North 15.0 mph - N/A   Overcast
3:53 PM 41.0 °F 33.5 °F 19.0 °F 41% 30.22 in 10.0 mi North 13.8 mph - N/A   Mostly Cloudy
4:53 PM 37.9 °F 29.6 °F 18.0 °F 45% 30.25 in 10.0 mi North 13.8 mph - N/A   Clear
5:53 PM 30.9 °F 18.7 °F 14.0 °F 50% 30.33 in 10.0 mi NNE 19.6 mph 29.9 mph N/A   Partly Cloudy
6:53 PM 27.0 °F 14.3 °F 14.0 °F 58% 30.40 in 10.0 mi NNE 17.3 mph 28.8 mph N/A   Partly Cloudy
7:53 PM 23.0 °F 7.6 °F 10.0 °F 58% 30.45 in 10.0 mi NNE 21.9 mph - N/A   Overcast
8:53 PM 19.0 °F 2.4 °F 5.0 °F 54% 30.51 in 10.0 mi NE 21.9 mph 33.4 mph N/A   Overcast
9:53 PM 16.0 °F -0.9 °F -0.0 °F 49% 30.54 in 10.0 mi NE 19.6 mph 28.8 mph N/A   Overcast
10:53 PM 12.9 °F -5.3 °F -6.0 °F 43% 30.58 in 10.0 mi NE 20.7 mph - N/A   Overcast
11:53 PM 10.9 °F -3.4 °F -8.0 °F 42% 30.62 in 10.0 mi NNE 11.5 mph - N/A   Overcast